1302134432191,59.8005
1302134492191,59.8375
1302134552191,59.9508
1302134612191,59.9134
1302134672191,59.9607
1302134732191,59.8521
1302134792191,59.8505
1302134852191,59.8630
1302134912191,59.7559
1302134972191,60.0115
1302135032191,59.9240
1302135092191,59.9803
1302135152191,59.7122
1302135212191,59.9591
1302135272191,59.8314
1302135332191,59.9257
1302135392191,59.6860
1302135452191,59.8467
1302135512191,60.0275
1302135572191,59.9167
1302135632191,59.8214
1302135692191,59.8142
1302135752191,59.9052
1302135812191,59.8163
1302135872191,59.7973
1302135932191,59.7673
1302135992191,59.7942
1302136052191,59.8508
1302136112191,59.9038
1302136172191,59.8429
1302136232191,59.8501
1302136292191,60.0195
1302136352191,59.7810
1302136412191,59.8563
1302136472191,59.9271
1302136532191,59.8380
1302136592191,59.8321
1302136652191,59.8412
1302136712191,59.8560
1302136772191,59.7925
1302136832191,59.6824
1302136892191,59.8623
1302136952191,59.7861
1302137012191,59.8198
1302137072191,59.6369
1302137132191,59.8638
1302137192191,59.7022
1302137252191,59.6552
1302137312191,59.8124
1302137372191,59.7184
1302137432191,59.7407
1302137492191,59.8368
1302137552191,59.8547
1302137612191,59.7261
1302137672191,59.8137
1302137732191,59.8580
1302137792191,59.6506
1302137852191,59.7391
1302137912191,59.8319
1302137972191,59.8068
1302138032203,59.7330
1302138092203,59.7326
1302138152203,59.6612
1302138212203,59.8538
1302138272203,59.7914
1302138332203,59.7091
1302138392203,59.7799
1302138452203,59.8260
1302138512203,59.6697
1302138572203,59.7745
1302138632203,59.6810
1302138692203,59.5383
1302138752203,59.7898
1302138812203,59.6882
1302138872203,59.7723
1302138932203,59.6540
1302138992203,59.7292
1302139052203,59.6244
1302139112203,59.7074
1302139172203,59.6957
1302139232203,59.7315
1302139292203,59.7757
1302139352203,59.5460
1302139412203,59.6842
1302139472203,59.6339
1302139532203,59.7447
1302139592203,59.6727
1302139652203,59.7913
1302139712203,59.7275
1302139772203,59.5706
1302139832203,59.6035
1302139892203,59.8680
1302139952203,59.7197
1302140012203,59.6597
1302140072203,59.6295
1302140132203,59.5440
1302140192203,59.6118
1302140252203,59.7873
1302140312203,59.8506
1302140372203,59.7181
1302140432203,59.7064
1302140492203,59.6707
1302140552203,59.8387
1302140612203,59.6702
1302140672203,59.8752
1302140732203,59.7065
1302140792203,59.8466
1302140852203,59.8644
1302140912203,59.7380
1302140972203,59.7357
1302141032203,59.7637
1302141092203,59.7213
1302141152203,59.6909
1302141212203,59.7902
1302141272203,59.9727
1302141332203,59.7524
1302141392203,59.5878
1302141452203,59.7034
1302141512203,59.6786
1302141572203,59.6966
1302141632214,59.7276
1302141692214,59.7477
1302141752214,59.6230
1302141812214,59.7398
1302141872214,59.6821
1302141932214,59.6727
1302141992214,60.0731
1302142052214,59.6847
1302142112214,59.6802
1302142172214,59.7006
1302142232214,59.7655
1302142292214,59.7863
1302142352214,59.6042
1302142412214,59.6331
1302142472214,59.7525
1302142532214,59.6710
1302142592214,59.6349
1302142652214,59.6721
1302142712214,59.7567
1302142772214,59.7738
1302142832214,59.7470
1302142892214,59.8910
1302142952214,59.7185
1302143012214,59.8171
1302143072214,59.7924
1302143132214,59.7819
1302143192214,59.9357
1302143252214,59.7220
1302143312214,59.6087
1302143372214,59.5354
1302143432214,59.7475
1302143492214,59.6535
1302143552214,59.7404
1302143612214,59.7859
1302143672214,59.8487
1302143732214,59.8619
1302143792214,59.7428
1302143852214,59.6355
1302143912214,59.7457
1302143972214,59.7246
1302144032214,59.6520
1302144092214,59.7678
1302144152214,59.7909
1302144212214,59.8574
1302144272214,59.7606
1302144332214,59.6254
1302144392214,59.9240
1302144452214,59.7969
1302144512214,59.9231
1302144572214,59.9691
1302144632214,59.8292
1302144692214,59.9292
1302144752214,59.8671
1302144812214,59.7252
1302144872214,59.8173
1302144932214,59.7687
1302144992214,59.9149
1302145052214,59.9290
1302145112214,60.0322
1302145172214,59.7858
1302145232225,59.7241
1302145292225,59.8338
1302145352225,59.7846
1302145412225,59.7566
1302145472225,59.8684
1302145532225,59.7704
1302145592225,59.7263
1302145652225,59.8990
1302145712225,59.7796
1302145772225,59.8225
1302145832225,59.9560
1302145892225,59.6858
1302145952225,59.6735
1302146012225,59.7984
1302146072225,59.8615
1302146132225,59.7039
1302146192225,59.7443
1302146252225,59.7912
1302146312225,59.7773
1302146372225,59.6227
1302146432225,59.5852
1302146492225,59.8174
1302146552225,59.7812
1302146612225,59.6562
1302146672225,59.5198
1302146732225,59.6466
1302146792225,59.5644
1302146852225,59.5261
1302146912225,59.8795
1302146972225,59.6698
1302147032225,59.5428
1302147092225,59.5889
1302147152225,59.4419
1302147212225,59.5393
1302147272225,59.5824
1302147332225,59.5531
1302147392225,59.4745
1302147452225,59.5589
1302147512225,59.3863
1302147572225,59.3501
1302147632225,59.4879
1302147692225,59.4465
1302147752225,59.4145
1302147812225,59.4735
1302147872225,59.4229
1302147932225,59.3515
1302147992225,59.5444
1302148052225,59.4468
1302148112225,59.4869
1302148172225,59.5163
1302148232225,59.3631
1302148292225,59.5391
1302148352225,59.4015
1302148412225,59.2595
1302148472225,59.4031
1302148532225,59.3247
1302148592225,59.5339
1302148652225,59.3697
1302148712225,59.4457
1302148772225,59.2347
1302148832237,59.3958
1302148892237,59.3526
1302148952237,59.3908
1302149012237,59.4453
1302149072237,59.2969
1302149132237,59.3703
1302149192237,59.4057
1302149252237,59.3504
1302149312237,59.3439
1302149372237,59.2369
1302149432237,59.3469
1302149492237,59.3315
1302149552237,59.3365
1302149612237,59.3029
1302149672237,59.1169
1302149732237,59.4239
1302149792237,59.2979
1302149852237,59.3581
1302149912237,59.2707
1302149972237,59.2184
1302150032237,59.2914
1302150092237,59.4009
1302150152237,59.2018
1302150212237,59.3655
1302150272237,59.2647
1302150332237,59.2431
1302150392237,59.3206
1302150452237,59.3192
1302150512237,59.3979
1302150572237,59.1628
1302150632237,59.1491
1302150692237,59.2391
1302150752237,59.0961
1302150812237,59.2016
1302150872237,59.1534
1302150932237,59.0864
1302150992237,59.1313
1302151052237,59.1658
1302151112237,59.1106
1302151172237,59.0095
1302151232237,59.1485
1302151292237,59.0689
1302151352237,59.0550
1302151412237,59.1331
1302151472237,59.0301
1302151532237,59.1926
1302151592237,59.0630
1302151652237,59.1836
1302151712237,59.0273
1302151772237,59.0241
1302151832237,59.0631
1302151892237,59.0399
1302151952237,59.0185
1302152012237,59.1019
1302152072237,59.2749
1302152132237,59.1039
1302152192237,59.0004
1302152252237,59.0788
1302152312237,59.0233
1302152372237,59.0842
1302152432248,58.9523
1302152492248,58.9675
1302152552248,59.0137
1302152612248,59.0371
1302152672248,58.7969
1302152732248,58.9826
1302152792248,58.8463
1302152852248,58.7726
1302152912248,58.9240
1302152972248,59.0350
1302153032248,59.0804
1302153092248,58.7371
1302153152248,58.8011
1302153212248,58.7349
1302153272248,58.8003
1302153332248,58.7954
1302153392248,58.8131
1302153452248,58.8715
1302153512248,58.8850
1302153572248,58.7042
1302153632248,58.7803
1302153692248,58.8170
1302153752248,58.8232
1302153812248,58.9011
1302153872248,58.7762
1302153932248,58.9484
1302153992248,58.8441
1302154052248,58.9163
1302154112248,59.0141
1302154172248,58.8013
1302154232248,58.7467
1302154292248,58.7516
1302154352248,58.9108
1302154412248,58.6269
1302154472248,58.8680
1302154532248,58.8732
1302154592248,58.7651
1302154652248,58.8112
1302154712248,58.6891
1302154772248,58.7954
1302154832248,58.7538
1302154892248,58.8104
1302154952248,58.7280
1302155012248,58.7200
1302155072248,58.7799
1302155132248,58.8923
1302155192248,58.7927
1302155252248,58.7440
1302155312248,58.8400
1302155372248,58.7656
1302155432248,58.8524
1302155492248,58.6923
1302155552248,58.8785
1302155612248,58.6608
1302155672248,58.8694
1302155732248,58.8240
1302155792248,58.8889
1302155852248,58.7749
1302155912248,58.9028
1302155972248,58.8908
1302156032259,58.8244
1302156092259,58.8985
1302156152259,58.7816
1302156212259,58.7427
1302156272259,58.7209
1302156332259,58.8074
1302156392259,58.7639
1302156452259,59.0140
1302156512259,58.6801
1302156572259,58.8902
1302156632259,58.9901
1302156692259,58.8415
1302156752259,58.8212
1302156812259,58.9324
1302156872259,58.8520
1302156932259,58.8907
1302156992259,58.8421
1302157052259,58.8579
1302157112259,58.7397
1302157172259,58.8687
1302157232259,58.9449
1302157292259,58.9839
1302157352259,58.8347
1302157412259,58.9873
1302157472259,58.8253
1302157532259,58.9597
1302157592259,58.9682
1302157652259,58.8066
1302157712259,59.0097
1302157772259,58.7774
1302157832259,58.8438
1302157892259,58.9470
1302157952259,58.8684
1302158012259,58.8620
1302158072259,58.8589
1302158132259,58.9842
1302158192259,58.8017
1302158252259,59.0216
1302158312259,58.9307
1302158372259,59.0267
1302158432259,58.9318
1302158492259,58.9026
1302158552259,58.7541
1302158612259,58.9619
1302158672259,58.9772
1302158732259,58.9129
1302158792259,58.9072
1302158852259,58.7825
1302158912259,58.8552
1302158972259,58.9700
1302159032259,58.8540
1302159092259,58.9368
1302159152259,58.7509
1302159212259,58.6900
1302159272259,58.8486
1302159332259,58.9781
1302159392259,58.9258
1302159452259,58.6550
1302159512259,58.7856
1302159572259,58.7342
1302159632270,58.8296
1302159692270,58.9361
1302159752270,58.7861
1302159812270,58.9525
1302159872270,58.8539
1302159932270,58.9631
1302159992270,58.8602
1302160052270,59.0137
1302160112270,59.0839
1302160172270,58.8845
1302160232270,58.8810
1302160292270,58.9667
1302160352270,58.8766
1302160412270,59.1154
1302160472270,58.9653
1302160532270,58.8319
1302160592270,58.9221
1302160652270,59.0007
1302160712270,58.8445
1302160772270,58.7552
1302160832270,58.8737
1302160892270,59.0713
1302160952270,58.9618
1302161012270,58.8743
1302161072270,58.8069
1302161132270,58.8358
1302161192270,58.8200
1302161252270,58.9981
1302161312270,58.9616
1302161372270,58.7422
1302161432270,58.7677
1302161492270,58.8251
1302161552270,58.7978
1302161612270,58.7528
1302161672270,58.8222
1302161732270,58.8023
1302161792270,58.8465
1302161852270,58.9056
1302161912270,58.8629
1302161972270,58.7748
1302162032270,58.7537
1302162092270,58.7784
1302162152270,58.7633
1302162212270,58.7470
1302162272270,58.8690
1302162332270,58.7577
1302162392270,58.7698
1302162452270,58.7958
1302162512270,58.8509
1302162572270,58.8868
1302162632270,58.9283
1302162692270,58.7263
1302162752270,58.5790
1302162812270,58.8363
1302162872270,58.7434
1302162932270,58.6199
1302162992270,58.8168
1302163052270,58.6720
1302163112270,58.6995
1302163172270,58.6717
1302163232281,58.6561
1302163292281,58.8116
1302163352281,58.7246
1302163412281,58.8085
1302163472281,58.7216
1302163532281,58.6464
1302163592281,58.6623
1302163652281,58.7956
1302163712281,58.7644
1302163772281,58.8326
1302163832281,58.6952
1302163892281,58.7012
1302163952281,58.7131
1302164012281,58.5656
1302164072281,58.6618
1302164132281,58.5633
1302164192281,58.6179
1302164252281,58.6516
1302164312281,58.5140
1302164372281,58.6594
1302164432281,58.6058
1302164492281,58.7197
1302164552281,58.6146
1302164612281,58.7015
1302164672281,58.6773
1302164732281,58.5901
1302164792281,58.4628
1302164852281,58.6109
1302164912281,58.6841
1302164972281,58.6613
1302165032281,58.4046
1302165092281,58.5028
1302165152281,58.5516
1302165212281,58.5700
1302165272281,58.6444
1302165332281,58.5592
1302165392281,58.5340
1302165452281,58.5378
1302165512281,58.5449
1302165572281,58.6767
1302165632281,58.6500
1302165692281,58.5714
1302165752281,58.5444
1302165812281,58.6891
1302165872281,58.5750
1302165932281,58.6575
1302165992281,58.4785
1302166052281,58.5280
1302166112281,58.5431
1302166172281,58.5976
1302166232281,58.5264
1302166292281,58.5263
1302166352281,58.6259
1302166412281,58.4944
1302166472281,58.4038
1302166532281,58.6321
1302166592281,58.7356
1302166652281,58.5117
1302166712281,58.5008
1302166772281,58.5420
1302166832292,58.6926
1302166892292,58.5193
1302166952292,58.6646
1302167012292,58.7506
1302167072292,58.6836
1302167132292,58.5454
1302167192292,58.6483
1302167252292,58.5892
1302167312292,58.3894
1302167372292,58.4361
1302167432292,58.6182
1302167492292,58.7462
1302167552292,58.6425
1302167612292,58.4445
1302167672292,58.5383
1302167732292,58.4906
1302167792292,58.4559
1302167852292,58.4928
1302167912292,58.3367
1302167972292,58.5263
1302168032292,58.3731
1302168092292,58.4003
1302168152292,58.3509
1302168212292,58.4145
1302168272292,58.4627
1302168332292,58.4413
1302168392292,58.4492
1302168452292,58.2569
1302168512292,58.3834
1302168572292,58.5255
1302168632292,58.3568
1302168692292,58.3458
1302168752292,58.3007
1302168812292,58.3955
1302168872292,58.5095
1302168932292,58.1908
1302168992292,58.4790
1302169052292,58.2107
1302169112292,58.4012
1302169172292,58.2514
1302169232292,58.4093
1302169292292,58.2266
1302169352292,58.2388
1302169412292,58.3086
1302169472292,58.3725
1302169532292,58.4059
1302169592292,58.3441
1302169652292,58.3759
1302169712292,58.2519
1302169772292,58.3865
1302169832292,58.1543
1302169892292,58.4094
1302169952292,58.2854
1302170012292,58.2822
1302170072292,58.2983
1302170132292,58.4448
1302170192292,58.2877
1302170252292,58.1633
1302170312292,58.3764
1302170372292,58.2357
1302170432303,58.2724
1302170492303,58.2563
1302170552303,58.3241
1302170612303,58.2405
1302170672303,58.2668
1302170732303,58.3891
1302170792303,58.3019
1302170852303,58.2525
1302170912303,58.2360
1302170972303,58.2668
1302171032303,58.3064
1302171092303,58.3066
1302171152303,58.2532
1302171212303,58.4037
1302171272303,58.2503
1302171332303,58.1781
1302171392303,58.3918
1302171452303,58.4865
1302171512303,58.3503
1302171572303,58.2094
1302171632303,58.1752
1302171692303,58.2232
1302171752303,58.0970
1302171812303,58.1780
1302171872303,58.2260
1302171932303,58.3169
1302171992303,58.1476
1302172052303,58.3828
1302172112303,58.2355
1302172172303,58.2884
1302172232303,58.2561
1302172292303,58.2414
1302172352303,58.0636
1302172412303,58.0912
1302172472303,58.0780
1302172532303,58.2012
1302172592303,58.1525
1302172652303,58.0846
1302172712303,58.1132
1302172772303,58.2555
1302172832303,58.3152
1302172892303,58.2412
1302172952303,58.0924
1302173012303,58.1554
1302173072303,58.0753
1302173132303,58.1614
1302173192303,58.1235
1302173252303,58.2508
1302173312303,58.1055
1302173372303,58.2691
1302173432303,58.0342
1302173492303,58.1976
1302173552303,58.1416
1302173612303,58.1490
1302173672303,58.1979
1302173732303,58.2198
1302173792303,58.1898
1302173852303,58.0964
1302173912303,58.0466
1302173972303,58.1974
1302174032314,58.2252
1302174092314,58.1110
1302174152314,58.1514
1302174212314,58.3099
1302174272314,58.1361
1302174332314,58.1282
1302174392314,58.2495
1302174452314,58.1986
1302174512314,58.3244
1302174572314,58.3473
1302174632314,58.1482
1302174692314,58.3098
1302174752314,58.1558
1302174812314,58.2089
1302174872314,58.2745
1302174932314,58.4531
1302174992314,58.2453
1302175052314,58.1419
1302175112314,58.1442
1302175172314,58.2465
1302175232314,58.2111
1302175292314,58.1971
1302175352314,58.3128
1302175412314,58.5230
1302175472314,58.2438
1302175532314,58.3515
1302175592314,58.2767
1302175652314,58.2774
1302175712314,58.2409
1302175772314,58.1728
1302175832314,58.3502
1302175892314,58.3027
1302175952314,58.3249
1302176012314,58.2229
1302176072314,58.2808
1302176132314,58.2240
1302176192314,58.1965
1302176252314,58.0030
1302176312314,58.2990
1302176372314,58.1427
1302176432314,58.1412
1302176492314,58.3001
1302176552314,58.2062
1302176612314,58.2069
1302176672314,58.1145
1302176732314,58.2958
1302176792314,58.1613
1302176852314,58.1552
1302176912314,57.9246
1302176972314,58.0396
1302177032314,58.1708
1302177092314,58.0416
1302177152314,58.1369
1302177212314,57.9978
1302177272314,58.1491
1302177332314,58.0951
1302177392314,58.2077
1302177452314,58.1195
1302177512314,57.9436
1302177572314,58.1570
1302177632325,58.0314
1302177692325,58.0493
1302177752325,58.0221
1302177812325,57.9124
1302177872325,58.0535
1302177932325,58.0449
1302177992325,58.0273
1302178052325,58.1033
1302178112325,58.0470
1302178172325,58.1674
1302178232325,58.3440
1302178292325,58.1496
1302178352325,57.9172
1302178412325,58.1276
1302178472325,57.9887
1302178532325,58.0495
1302178592325,58.0319
1302178652325,57.9853
1302178712325,58.1351
1302178772325,58.1341
1302178832325,58.2339
1302178892325,58.0868
1302178952325,57.9958
1302179012325,58.1120
1302179072325,58.0454
1302179132325,58.0664
1302179192325,58.3256
1302179252325,58.0646
1302179312325,58.1987
1302179372325,57.9765
1302179432325,58.2567
1302179492325,58.3340
1302179552325,58.2752
1302179612325,58.1102
1302179672325,58.0588
1302179732325,58.1602
1302179792325,58.1532
1302179852325,58.0961
1302179912325,58.2210
1302179972325,58.1943
1302180032325,58.1413
1302180092325,58.2626
1302180152325,58.2708
1302180212325,58.2314
1302180272325,58.2941
1302180332325,58.1488
1302180392325,58.2705
1302180452325,58.2962
1302180512325,58.2305
1302180572325,58.2117
1302180632325,58.3312
1302180692325,58.2162
1302180752325,58.4313
1302180812325,58.2747
1302180872325,58.2902
1302180932325,58.1787
1302180992325,58.1107
1302181052325,58.1028
1302181112325,58.3600
1302181172325,58.3898
1302181232336,58.1805
1302181292336,58.2453
1302181352336,58.1629
1302181412336,58.3185
1302181472336,58.2571
1302181532336,58.2315
1302181592336,58.1427
1302181652336,58.1797
1302181712336,58.2432
1302181772336,58.0685
1302181832336,57.9616
1302181892336,58.1531
1302181952336,58.2237
1302182012336,58.1453
1302182072336,58.2212
1302182132336,58.2544
1302182192336,58.1613
1302182252336,58.2076
1302182312336,58.0142
1302182372336,58.1056
1302182432336,58.1282
1302182492336,58.0736
1302182552336,58.0156
1302182612336,58.1324
1302182672336,58.2238
1302182732336,58.0815
1302182792336,58.1445
1302182852336,58.1247
1302182912336,58.1550
1302182972336,58.0508
1302183032336,58.1451
1302183092336,58.0755
1302183152336,58.2300
1302183212336,58.1217
1302183272336,58.0544
1302183332336,58.1765
1302183392336,58.1534
1302183452336,58.1974
1302183512336,57.9903
1302183572336,58.1752
1302183632336,58.0461
1302183692336,57.9711
1302183752336,58.0288
1302183812336,58.1124
1302183872336,58.0422
1302183932336,58.0036
1302183992336,58.0056
1302184052336,57.9099
1302184112336,58.0565
1302184172336,57.8852
1302184232336,58.0767
1302184292336,57.9332
1302184352336,57.9858
1302184412336,57.9584
1302184472336,57.9349
1302184532336,57.8488
1302184592336,57.7392
1302184652336,58.0452
1302184712336,58.0421
1302184772336,58.0273
1302184832347,58.0869
1302184892347,58.0894
1302184952347,57.8960
1302185012347,57.9740
1302185072347,57.9356
1302185132347,57.8531
1302185192347,57.9942
1302185252347,57.9087
1302185312347,57.8858
1302185372347,57.9824
1302185432347,57.9637
1302185492347,57.8531
1302185552347,57.9073
1302185612347,58.0189
1302185672347,57.9316
1302185732347,58.1184
1302185792347,57.8736
1302185852347,58.0517
1302185912347,57.9481
1302185972347,57.9993
1302186032347,57.9787
1302186092347,58.0093
1302186152347,57.9613
1302186212347,58.1216
1302186272347,57.9420
1302186332347,57.9622
1302186392347,58.0479
1302186452347,57.8829
1302186512347,58.0697
1302186572347,57.7699
1302186632347,58.1150
1302186692347,57.8987
1302186752347,57.8845
1302186812347,57.9013
1302186872347,57.9175
1302186932347,57.9402
1302186992347,57.8693
1302187052347,58.0496
1302187112347,58.0279
1302187172347,58.0449
1302187232347,57.9868
1302187292347,57.7074
1302187352347,57.7887
1302187412347,57.9384
1302187472347,57.7868
1302187532347,57.9135
1302187592347,57.9217
1302187652347,57.8184
1302187712347,57.9383
1302187772347,57.8974
1302187832347,57.7935
1302187892347,57.9018
1302187952347,57.8464
1302188012347,57.9521
1302188072347,57.7941
1302188132347,57.8902
1302188192347,57.8848
1302188252347,57.9340
1302188312347,57.7336
1302188372347,57.7700
1302188432357,57.8743
1302188492357,57.8359
1302188552357,57.8913
1302188612357,57.8722
1302188672357,57.8844
1302188732357,57.8909
1302188792357,58.0266
1302188852357,57.9330
1302188912357,57.9234
1302188972357,57.8713
1302189032357,57.8397
1302189092357,57.7954
1302189152357,57.8649
1302189212357,57.8418
1302189272357,57.6011
1302189332357,57.8013
1302189392357,57.8986
1302189452357,57.8456
1302189512357,57.8307
1302189572357,57.8927
1302189632357,58.2638
1302189692357,57.9836
1302189752357,57.8362
1302189812357,57.9729
1302189872357,57.7705
1302189932357,57.7619
1302189992357,57.8708
1302190052357,57.9671
1302190112357,57.9341
1302190172357,57.8798
1302190232357,57.9883
1302190292357,57.9692
1302190352357,58.0166
1302190412357,57.9059
1302190472357,58.0571
1302190532357,57.9751
1302190592357,57.8537
1302190652357,57.9501
1302190712357,57.9886
1302190772357,57.9661
1302190832357,57.9761
1302190892357,58.1070
1302190952357,57.9496
1302191012357,57.9579
1302191072357,57.9210
1302191132357,57.9975
1302191192357,57.9807
1302191252357,57.9577
1302191312357,58.0373
1302191372357,58.1735
1302191432357,58.0399
1302191492357,57.8841
1302191552357,58.0133
1302191612357,57.8353
1302191672357,57.7463
1302191732357,58.0099
1302191792357,57.8697
1302191852357,57.8242
1302191912357,57.9784
1302191972357,57.8052
1302192032368,57.8487
1302192092368,57.8200
1302192152368,57.8664
1302192212368,57.8212
1302192272368,57.7877
1302192332368,57.8839
1302192392368,57.8071
1302192452368,57.7655
1302192512368,57.8697
1302192572368,57.7899
1302192632368,57.9011
1302192692368,57.8233
1302192752368,57.6831
1302192812368,57.7813
1302192872368,57.7342
1302192932368,57.6794
1302192992368,57.7312
1302193052368,57.7640
1302193112368,57.8353
1302193172368,57.6346
1302193232368,57.7286
1302193292368,57.5758
1302193352368,57.8072
1302193412368,57.5819
1302193472368,57.7002
1302193532368,57.5716
1302193592368,57.6616
1302193652368,57.5783
1302193712368,57.6076
1302193772368,57.4485
1302193832368,57.3801
1302193892368,57.4206
1302193952368,57.4861
1302194012368,57.4819
1302194072368,57.3833
1302194132368,57.5373
1302194192368,57.5562
1302194252368,57.4473
1302194312368,57.4316
1302194372368,57.3608
1302194432368,57.3666
1302194492368,57.3222
1302194552368,57.4000
1302194612368,57.4912
1302194672368,57.3930
1302194732368,57.4393
1302194792368,57.4221
1302194852368,57.6180
1302194912368,57.4833
1302194972368,57.8294
1302195032368,57.6186
1302195092368,57.5484
1302195152368,57.6057
1302195212368,57.6947
1302195272368,57.6033
1302195332368,57.7121
1302195392368,57.7228
1302195452368,57.7190
1302195512368,57.6827
1302195572368,57.7850
1302195632378,57.8759
1302195692378,57.9513
1302195752378,57.9460
1302195812378,57.9008
1302195872378,57.9408
1302195932378,58.0956
1302195992378,57.9255
1302196052378,57.7537
1302196112378,57.7192
1302196172378,57.7506
1302196232378,57.8823
1302196292378,57.7288
1302196352378,57.8294
1302196412378,57.8665
1302196472378,57.8815
1302196532378,57.7724
1302196592378,57.6140
1302196652378,57.7870
1302196712378,57.7957
1302196772378,57.8194
1302196832378,57.8411
1302196892378,57.7415
1302196952378,57.8789
1302197012378,57.8088
1302197072378,57.8783
1302197132378,57.9126
1302197192378,57.8626
1302197252378,57.9558
1302197312378,57.9586
1302197372378,57.8897
1302197432378,57.8479
1302197492378,57.8867
1302197552378,57.9919
1302197612378,58.0033
1302197672378,57.7031
1302197732378,57.8779
1302197792378,57.9622
1302197852378,57.9842
1302197912378,57.9424
1302197972378,57.9651
1302198032378,57.8359
1302198092378,57.9006
1302198152378,57.9373
1302198212378,57.9439
1302198272378,57.9712
1302198332378,57.9236
1302198392378,58.0571
1302198452378,57.9767
1302198512378,57.8471
1302198572378,57.8294
1302198632378,57.8806
1302198692378,57.7916
1302198752378,57.7659
1302198812378,57.8512
1302198872378,57.7753
1302198932378,57.9495
1302198992378,57.9333
1302199052378,57.7765
1302199112378,57.9384
1302199172378,57.8777
1302199232389,57.8573
1302199292389,58.0332
1302199352389,57.9237
1302199412389,58.0777
1302199472389,57.9181
1302199532389,57.9724
1302199592389,58.1093
1302199652389,57.9757
1302199712389,57.9406
1302199772389,58.3133